This is the latest recevied weather packets stored in our database for station/object OE3CJB-13. If no packets are shown the sender has not sent any weather packets the latest 10 day(s).
| Time | Temp. | Humidity | Pressure | Rain* | Wind** | Luminosity | Snow |
|---|---|---|---|---|---|---|---|
| 1777647688 | 20.56° C | - | 749.2 hPa | 0 mm | - | - | - |
| 1777646727 | 21.11° C | - | 750.1 hPa | 0 mm | - | - | - |
| 1777645814 | 21.67° C | - | 750.1 hPa | 0 mm | - | - | - |
| 1777644950 | 21.11° C | - | 749.4 hPa | 0 mm | - | - | - |
| 1777644041 | 20.56° C | - | 749.5 hPa | 0 mm | - | - | - |
| 1777643125 | 21.11° C | - | 751.1 hPa | 0 mm | - | - | - |
| 1777642266 | 20.56° C | - | 751.2 hPa | 0 mm | - | - | - |
| 1777641349 | 20° C | - | 751.3 hPa | 0 mm | - | - | - |
| 1777640440 | 20.56° C | - | 750.5 hPa | 0 mm | - | - | - |
| 1777639574 | 20.56° C | - | 752.9 hPa | 0 mm | - | - | - |
| 1777638614 | 20.56° C | - | 753 hPa | 0 mm | - | - | - |
| 1777637749 | 20° C | - | 753.1 hPa | 0 mm | - | - | - |
| 1777636840 | 19.44° C | - | 755.5 hPa | 0 mm | - | - | - |
| 1777635974 | 18.89° C | 10% | 757.2 hPa | 0 mm | - | - | - |
| 1777635110 | 18.33° C | - | 757.3 hPa | 0 mm | - | - | - |
| 1777634149 | 17.78° C | - | 755.7 hPa | 0 mm | - | - | - |
| 1777633336 | 17.78° C | - | 755.9 hPa | 0 mm | - | - | - |
| 1777632326 | 18.33° C | - | 755.8 hPa | 0 mm | - | - | - |
| 1777631413 | 17.78° C | 10% | 755.9 hPa | 0 mm | - | - | - |
| 1777630550 | 17.22° C | 10% | 755.9 hPa | 0 mm | - | - | - |
| 1777629640 | 16.67° C | - | 756 hPa | 0 mm | - | - | - |
| 1777628725 | 16.67° C | 10% | 755.2 hPa | 0 mm | - | - | - |
| 1777627866 | 16.11° C | 11% | 756 hPa | 0 mm | - | - | - |
| 1777626949 | 16.11° C | 11% | 756.1 hPa | 0 mm | - | - | - |
| 1777626040 | 15.56° C | 11% | 755.4 hPa | 0 mm | - | - | - |
* Rain latest hour (hover to see other rain measurements)
** Current wind speed in m/s (hover to see current wind gust speed)